[[{"header":{"parameterUnit":"m.s-1","parameterCategory":1,"la1":30.2992,"la2":30.254,"lo1":-89.0895,"lo2":-89.0443,"dy":0.0025,"dx":0.0025,"nx":19,"ny":19,"refTime":"2026-05-15T09:00:00:Z","depth":0,"parameterNumber":2,"parameterNumberName":"U-component_of_WINDS"},"data":[0,0,0,-3.2868,-3.2868,-3.2865,-3.2865,-3.2902,-3.2903,0,0,0,0,0,0,0,0,0,0,0,-3.2894,-3.2895,-3.2868,-3.2868,-3.2865,-3.2865,-3.2902,-3.2903,0,0,0,0,0,0,0,0,0,0,0,-3.2893,-3.2894,-3.2896,-3.2868,-3.2865,-3.2865,-3.2902,-3.2889,0,0,0,0,0,0,0,0,0,0,-3.2885,-3.2934,-3.2894,-3.2896,-3.2868,-3.2865,-3.2865,-3.2888,-3.289,-3.2921,0,-3.2955,0,-3.293,-3.2908,-3.2908,0,0,0,-3.285,-3.2932,-3.2909,-3.2896,-3.2869,-3.2865,-3.2861,-3.2889,-3.2891,-3.2924,-3.2955,-3.2955,-3.293,-3.2908,-3.2909,-3.3148,-3.315,0,0,-3.285,-3.2907,-3.2907,-3.2912,-3.2915,-3.2862,-3.2861,-3.289,-3.2928,-3.2955,-3.2956,-3.2931,-3.2909,-3.2909,-3.3146,-3.3148,0,0,0,-3.2863,-3.2908,-3.2882,-3.2911,-3.2908,-3.2862,-3.2862,-3.2926,-3.2913,-3.2956,-3.2931,-3.2909,-3.291,-3.3144,-3.3147,-3.33,0,0,0,-3.2862,-3.2915,-3.2883,-3.2918,-3.2908,-3.2917,-3.2899,-3.2911,-3.2913,-3.2931,-3.2909,-3.2911,-3.3141,-3.3145,-3.3291,-3.3364,0,0,0,-3.2885,-3.2917,-3.2926,-3.2921,-3.2922,-3.2915,-3.2903,-3.291,-3.2899,-3.2908,-3.2911,-3.314,-3.3144,-3.3283,-3.3351,-3.3444,0,0,0,-3.2927,-3.3063,-3.2929,-3.3071,-3.2923,-3.301,-3.2902,-3.2965,-3.2991,-3.291,-3.3142,-3.3146,-3.3281,-3.3342,-3.3436,-3.3533,-3.3579,0,0,-3.313,-3.309,-3.3169,-3.3049,-3.3175,-3.3006,-3.3154,-3.3124,-3.3073,-3.3126,-3.3131,-3.3294,-3.335,-3.3442,-3.3814,-3.3851,0,0,0,-3.3253,-3.3311,-3.3331,-3.3359,-3.3339,-3.3327,-3.3269,-3.3257,-3.3299,-3.3112,-3.3351,-3.3382,-3.3434,-3.3478,-3.3509,-3.355,-3.3169,-3.3168,-3.3168,-3.3625,-3.355,-3.3676,-3.3602,-3.363,-3.3567,-3.3583,-3.3557,-3.3475,-3.3533,-3.3549,-3.3783,-3.3837,-3.386,-3.3903,-3.3593,-3.3594,-3.3594,-3.3594,-3.3917,-3.3987,-3.3873,-3.3955,-3.3876,-3.3943,-3.3888,-3.3827,-3.3879,-3.3765,-3.3807,-3.3691,-3.3902,-3.3936,-3.3605,-3.3603,-3.3602,-3.3601,-3.36,-3.4153,-3.4174,-3.4157,-3.4187,-3.4219,-3.4138,-3.4193,-3.4119,-3.4049,-3.4091,-3.4099,-3.4096,-3.4085,-3.41,-3.41,-3.4101,-3.4102,-3.4103,-3.4103,-3.4406,-3.4381,-3.4436,-3.4425,-3.4431,-3.4431,-3.4368,-3.4373,-3.4359,-3.4301,-3.4301,-3.4214,-3.3936,-3.3869,-3.4115,-3.4113,-3.4112,-3.411,-3.411,-3.4732,-3.4645,-3.473,-3.4737,-3.4717,-3.4754,-3.4657,-3.4673,-3.4666,-3.4695,-3.4598,-3.4405,-3.4358,-3.4332,-3.4276,-3.4613,-3.4613,-3.4613,-3.4613,-3.4932,-3.49,-3.4969,-3.4985,-3.4992,-3.4913,-3.5011,-3.4962,-3.4899,-3.489,-3.483,-3.4748,-3.4726,-3.4692,-3.4659,-3.4605,-3.5019,-3.5019,-3.5019,-3.5128,-3.5093,-3.5192,-3.5127,-3.5105,-3.5088,-3.5178,-3.5201,-3.5111,-3.5034,-3.4882,-3.4865,-3.4732,-3.4692,-3.4615,-3.4565,-3.4464,0,0]},{"header":{"parameterUnit":"m.s-1","parameterCategory":1,"la1":30.2992,"la2":30.254,"lo1":-89.0895,"lo2":-89.0443,"dy":0.0025,"dx":0.0025,"nx":19,"ny":19,"refTime":"2026-05-15T09:00:00:Z","depth":0,"parameterNumber":3,"parameterNumberName":"V-component_of_WINDS"},"data":[0,0,0,-0.7162,-0.7163,-0.7264,-0.7265,-0.7374,-0.7374,0,0,0,0,0,0,0,0,0,0,0,-0.712,-0.712,-0.7161,-0.7164,-0.7264,-0.7265,-0.7373,-0.7374,0,0,0,0,0,0,0,0,0,0,0,-0.7119,-0.712,-0.712,-0.7164,-0.7264,-0.7265,-0.7373,-0.7304,0,0,0,0,0,0,0,0,0,0,-0.721,-0.716,-0.712,-0.712,-0.7164,-0.7264,-0.7265,-0.7301,-0.7309,-0.7319,0,-0.7326,0,-0.7351,-0.738,-0.7381,0,0,0,-0.7173,-0.7153,-0.7191,-0.712,-0.7165,-0.7264,-0.7221,-0.7306,-0.7314,-0.7329,-0.7327,-0.7332,-0.7353,-0.7381,-0.7381,-0.741,-0.741,0,0,-0.7167,-0.7131,-0.7186,-0.7196,-0.7179,-0.7218,-0.7224,-0.7311,-0.7307,-0.7328,-0.7335,-0.7355,-0.7382,-0.7382,-0.741,-0.741,0,0,0,-0.7145,-0.7127,-0.7164,-0.7191,-0.721,-0.7221,-0.7228,-0.7303,-0.7318,-0.7336,-0.7356,-0.7382,-0.7383,-0.7411,-0.741,-0.7359,0,0,0,-0.7142,-0.7114,-0.7161,-0.714,-0.7208,-0.7258,-0.7218,-0.7312,-0.7323,-0.7356,-0.7382,-0.7384,-0.7411,-0.7411,-0.7361,-0.7341,0,0,0,-0.7117,-0.7112,-0.7122,-0.7137,-0.7179,-0.7258,-0.7278,-0.7315,-0.7335,-0.7381,-0.7384,-0.7411,-0.7411,-0.7363,-0.7344,-0.7336,0,0,0,-0.7081,-0.7077,-0.712,-0.7124,-0.7178,-0.7225,-0.7278,-0.7315,-0.7348,-0.7383,-0.7411,-0.741,-0.7364,-0.7346,-0.7338,-0.7322,-0.7312,0,0,-0.7056,-0.7072,-0.7077,-0.7119,-0.7149,-0.7213,-0.7235,-0.7301,-0.7339,-0.7384,-0.7385,-0.736,-0.7344,-0.7337,-0.7273,-0.7265,0,0,0,-0.7057,-0.7059,-0.7075,-0.7105,-0.7153,-0.7193,-0.7259,-0.7283,-0.7323,-0.7355,-0.7358,-0.7349,-0.7346,-0.734,-0.7333,-0.7332,-0.7406,-0.7406,-0.7407,-0.697,-0.7017,-0.7027,-0.7086,-0.7114,-0.718,-0.7207,-0.7251,-0.7292,-0.7291,-0.7305,-0.726,-0.7252,-0.7247,-0.7245,-0.7302,-0.7301,-0.7301,-0.7301,-0.6936,-0.6947,-0.6999,-0.7028,-0.7078,-0.7103,-0.7166,-0.7194,-0.7224,-0.7255,-0.7255,-0.7283,-0.7237,-0.7238,-0.7298,-0.7298,-0.7299,-0.7299,-0.7299,-0.6883,-0.6896,-0.6925,-0.697,-0.7,-0.7061,-0.7086,-0.7132,-0.7175,-0.7174,-0.7192,-0.7193,-0.7198,-0.718,-0.718,-0.718,-0.7179,-0.7179,-0.7179,-0.6816,-0.685,-0.6866,-0.6915,-0.6939,-0.6976,-0.7042,-0.7066,-0.7105,-0.7136,-0.7137,-0.7176,-0.7224,-0.7234,-0.7177,-0.7177,-0.7178,-0.7178,-0.7178,-0.6763,-0.6781,-0.6805,-0.6829,-0.689,-0.6915,-0.6973,-0.7019,-0.7046,-0.7057,-0.7097,-0.7125,-0.7146,-0.7151,-0.716,-0.7087,-0.7087,-0.7087,-0.7087,-0.6716,-0.6731,-0.6765,-0.6799,-0.6838,-0.6891,-0.6915,-0.6966,-0.7021,-0.704,-0.7058,-0.7073,-0.7077,-0.7096,-0.7103,-0.7111,-0.7028,-0.7028,-0.7028,-0.6685,-0.6705,-0.6717,-0.677,-0.6821,-0.6863,-0.6887,-0.6924,-0.6991,-0.7026,-0.7056,-0.7059,-0.7085,-0.7091,-0.7125,-0.7135,-0.7152,0,0]}]]